Location: Street
(51.1247°N, 2.7429°W)
Time: 06:26:30
(UTC+00:00)

S-56A Canister/Altair - Visible Passes

Search period start: 27 November 2020 00:00
Search period end: 07 December 2020 00:00
Orbit: 633 x 2499 km, 38.9° (Epoch: 26 November)

Date Brightness Start Highest point End Pass type
(mag) Time Alt. Az. Time Alt. Az. Time Alt. Az.
27 Nov 10.4 18:24:21 10° S 18:29:54 15° SSE 18:32:34 13° SE visible
27 Nov 10.4 20:25:29 10° SW 20:30:00 22° SSW 20:30:00 22° SSW visible
28 Nov 10.6 17:51:38 10° S 17:57:03 14° SSE 18:01:42 10° ESE visible
28 Nov 10.1 19:52:11 10° SW 19:59:12 27° S 19:59:12 27° S visible
28 Nov 11.1 21:56:33 10° WSW 21:56:39 10° WSW 21:56:39 10° WSW visible
29 Nov 10.7 17:19:03 10° S 17:24:08 14° SE 17:28:37 10° ESE visible
29 Nov 9.9 19:18:52 10° SSW 19:27:53 28° SSE 19:28:23 27° SSE visible
29 Nov 10.7 21:23:08 10° WSW 21:25:49 18° SW 21:25:49 18° SW visible
30 Nov 10.9 16:46:44 10° SSE 16:51:13 13° SE 16:55:17 10° ESE visible
30 Nov 10.0 18:45:35 10° SSW 18:54:58 27° SSE 18:57:33 24° SE visible
30 Nov 10.3 20:49:40 10° WSW 20:54:58 26° SW 20:54:58 26° SW visible
01 Dec 10.2 18:12:19 10° SSW 18:22:02 27° SSE 18:26:40 19° ESE visible
01 Dec 9.9 20:16:11 10° WSW 20:24:06 34° SSW 20:24:06 34° SSW visible
02 Dec 10.4 17:39:06 10° SSW 17:49:02 26° SSE 17:55:46 13° ESE visible
02 Dec 9.7 19:42:40 10° SW 19:53:05 37° S 19:53:12 37° S visible
02 Dec 10.8 21:48:14 10° WSW 21:50:38 17° WSW 21:50:38 17° WSW visible
03 Dec 10.6 17:05:58 10° SSW 17:16:00 25° SSE 17:24:01 10° ESE visible
03 Dec 9.7 19:09:08 10° SW 19:20:09 38° S 19:22:18 34° SSE visible
03 Dec 10.4 21:14:39 10° WSW 21:19:43 25° SW 21:19:43 25° SW visible
04 Dec 10.8 16:32:54 10° SSW 16:42:56 24° SSE 16:51:09 10° ESE visible
04 Dec 9.9 18:35:38 10° SW 18:47:08 38° S 18:51:22 27° SE visible
04 Dec 10.0 20:41:02 10° WSW 20:48:48 34° SW 20:48:48 34° SW visible
05 Dec 10.2 18:02:10 10° SW 18:14:05 38° SSE 18:20:26 20° ESE visible
05 Dec 9.7 20:07:24 10° WSW 20:17:52 40° SSW 20:17:52 40° SSW visible
05 Dec 11.1 22:13:52 10° W 22:15:17 13° WSW 22:15:17 13° WSW visible
06 Dec 10.4 17:28:44 10° SW 17:40:57 37° SSE 17:49:31 13° ESE visible
06 Dec 9.6 19:33:46 10° WSW 19:45:19 42° S 19:46:56 40° SSE visible
06 Dec 10.7 21:40:08 10° W 21:44:22 21° WSW 21:44:22 21° WSW visible
